Location: Hac?musa Deresi
(39.1694°N, 32.2508°E)
Time: 23:20:12
(UTC+00:00)

CZ-4B R/B - Pass Details

Date: 22 April 2026
Orbit: 462 x 561 km, 97.8° (Epoch: 9 May)

Event Time Altitude Azimuth Distance (km) Brightness Sun altitude
Exits shadow 17:55:31 11° 178° (S) 1,646 5.9 -15.1°
Maximum altitude 17:59:00 62° 259° (W) 585 4.1 -15.7°
Drops below altitude 10° 18:02:49 10° 341° (NNW) 1,784 7.2 -16.3°
Sets 18:05:00 0° 345° (NNW) 2,695 8.1 -16.7°
